Home   Weather   Las Palmas   Past weeks

Flag for Spain Past Weather in Las Palmas, Canary Islands, Spain — Yesterday and Last 2 Weeks

Now
72 °F

Passing clouds.


Feels Like: 77 °F
Forecast: 67 / 73 °F
Wind: 22 mph from North

Location: Las Palmas De Gran Canaria / Gando

Current Time: Apr 23, 2017 at 8:54:04 pm

Latest Report: Apr 23, 2017 at 8:00 pm


Visibility: N/A

Pressure: 30.01 "Hg

Humidity: 53%

Dew Point: 54 °F

Location of Las PalmasLocation

Past Weather in Las Palmas — Graph

°F

Las Palmas Temperature Yesterday

Maximum temperature yesterday: 75 °F (at 1:30 pm)
Minimum temperature yesterday: 64 °F (at 5:30 am)
Average temperature yesterday: 69 °F

High & Low Weather Summary for the Past Weeks

 TemperatureHumidityPressure
High93 °F (Apr 17, 4:00 pm)88% (Apr 10, 10:30 pm)30.18 "Hg (Apr 10, 10:30 pm)
Low61 °F (Apr 9, 4:30 am)13% (Apr 17, 8:00 am)29.77 "Hg (Apr 17, 4:00 pm)
Average70 °F66%30.01 "Hg
* Reported Apr 8 7:00 pm — Apr 23 7:30 pm, Las Palmas, Weather by CustomWeather, © 2017

Note: Actual official high and low records may vary slightly from our data, if they occured in-between our weather recording intervals... More about our weather records

Advertising

Las Palmas Weather History for the Previous 24 Hours

Scroll right to see more
 ConditionsComfort  
Time TempWeatherWind HumidityBarometerVisibility
7:30 pm
Sun, Apr 23
73 °FPassing clouds.22 mph50%30.01 "HgN/A
7:00 pm73 °FPassing clouds.21 mph50%30.01 "HgN/A
6:30 pm75 °FPassing clouds.21 mph47%30.01 "HgN/A
6:00 pm75 °FPassing clouds.22 mph47%30.01 "HgN/A
5:30 pm75 °FPassing clouds.22 mph47%30.01 "HgN/A
5:00 pm77 °FPassing clouds.23 mph47%30.01 "HgN/A
4:30 pm75 °FPassing clouds.22 mph47%30.01 "HgN/A
4:00 pm75 °FPassing clouds.25 mph54%30.01 "HgN/A
3:30 pm73 °FPassing clouds.28 mph57%30.04 "HgN/A
3:00 pm73 °FPassing clouds.26 mph57%30.04 "HgN/A
2:00 pm73 °FPassing clouds.26 mph57%30.07 "HgN/A
1:30 pm73 °FPassing clouds.26 mph57%30.07 "HgN/A
1:00 pm73 °FPassing clouds.29 mph53%30.07 "HgN/A
12:30 pm73 °FPassing clouds.28 mph53%30.07 "HgN/A
12:00 pm73 °FPassing clouds.26 mph53%30.07 "HgN/A
11:30 am73 °FPassing clouds.25 mph61%30.07 "HgN/A
11:00 am72 °FPassing clouds.24 mph61%30.07 "HgN/A
10:30 am72 °FScattered clouds.20 mph65%30.07 "HgN/A
10:00 am70 °FScattered clouds.20 mph64%30.07 "HgN/A
9:30 am70 °FPartly sunny.20 mph64%30.07 "HgN/A
9:00 am68 °FPartly sunny.17 mph64%30.04 "HgN/A
8:30 am66 °FScattered clouds.15 mph68%30.04 "HgN/A
8:00 am66 °FBroken clouds.17 mph68%30.04 "HgN/A
7:30 am66 °FScattered clouds.14 mph68%30.04 "HgN/A
7:00 am66 °FPassing clouds.15 mph68%30.04 "HgN/A
6:30 am64 °FPassing clouds.14 mph73%30.04 "HgN/A
6:00 am64 °FPassing clouds.13 mph78%30.04 "HgN/A
5:30 am66 °FPassing clouds.15 mph73%30.04 "HgN/A
5:00 am66 °FPassing clouds.14 mph68%30.04 "HgN/A
4:30 am66 °FPassing clouds.15 mph73%30.04 "HgN/A
3:30 am66 °FPassing clouds.13 mph68%30.04 "HgN/A
3:00 am66 °FPassing clouds.13 mph68%30.07 "HgN/A
2:30 am66 °FPassing clouds.14 mph73%30.07 "HgN/A
2:00 am66 °FPassing clouds.15 mph73%30.07 "HgN/A
1:30 am66 °FPassing clouds.14 mph73%30.07 "HgN/A
1:00 am66 °FPassing clouds.14 mph73%30.09 "HgN/A
12:30 am66 °FPassing clouds.14 mph73%30.09 "HgN/A
12:00 am66 °FPassing clouds.14 mph73%30.09 "HgN/A
11:30 pm
Sat, Apr 22
68 °FPassing clouds.15 mph69%30.09 "HgN/A
11:00 pm68 °FPassing clouds.17 mph69%30.09 "HgN/A
10:30 pm68 °FPassing clouds.16 mph69%30.07 "HgN/A
10:00 pm68 °FPassing clouds.16 mph64%30.07 "HgN/A
9:30 pm68 °FPassing clouds.16 mph64%30.07 "HgN/A
9:00 pm68 °FPassing clouds.18 mph64%30.04 "HgN/A
8:30 pm70 °FPassing clouds.18 mph60%30.04 "HgN/A
Weather by CustomWeather, © 2017

See weather overviewHow to use our weather pages